Content
SEND FEEDBACK

Daily
Averages
Monthly
Summary
United States of America

MERIDIAN - SOUTH, IDAHO


Home > North America > United States > Idaho
Elevation: 2610 feet     Latitude: 43 36N     Longitude: 116 24W

WEATHER
 
SELECT A DAY
Number of Records: 146,317;   Date Range: 5/14/10 - 4/15/14
 
SHARE

PRINT THIS DATA

[ ← Previous Day ]
WEATHER ALMANAC - FEBRUARY 13, 2013
[ Next Day → ]
[ °C ]   °F
Weather ElementAverageHighLow
Temperature40.8 °F51.8 °F (2:15 pm)30.2 °F (3:55 am)
Dewpoint31.6 °F37.4 °F (9:55 am)28.4 °F (8:15 pm)
Humidity73.7 %100 % (12:55 am)44 % (2:35 pm)
Barometer30.30 in30.35 in (12:55 am)30.26 in (2:35 pm)
Wind Speed5.2 mph11.5 mph (2:15 pm)
Wind Gust17.3 mph (7:55 pm)
Weather ElementAverage
Visibility10 mi
Wind DirectionSSE (167.6 °)

Weather ElementTotal
Precipitation---
Heating Degree Days24 (Base 65)
Averaged from 67 records on February 13, 2013
WEATHER CONDITIONS BREAKOUT
WIND DIRECTION BREAKOUT
WEATHER BY HOUR - FEBRUARY 13, 2013
[ °C ]   °F
Local TimeTemperatureDewpointHumidityBarometerVisibilityWind DirectionWind SpeedGust SpeedPrecipitationEventsConditions
12:55 AM33.8 °F33.8 °F100 %30.35 in10.0 miCalmOvercast
1:15 AM32.0 °F32.0 °F100 %30.35 in10.0 miESE (120°)4.6 mphOvercast
1:35 AM33.8 °F33.8 °F100 %30.34 in10.0 miSE (130°)3.5 mphOvercast
1:55 AM32.0 °F32.0 °F100 %30.34 in10.0 miCalmOvercast
2:15 AM32.0 °F32.0 °F100 %30.34 in10.0 miEast (100°)4.6 mphOvercast
2:35 AM32.0 °F32.0 °F100 %30.33 in10.0 miSE (140°)3.5 mphMostly Cloudy
2:55 AM32.0 °F32.0 °F100 %30.33 in10.0 miCalmPartly Cloudy
3:15 AM32.0 °F32.0 °F100 %30.33 in10.0 miESE (110°)3.5 mphScattered Clouds
3:35 AM32.0 °F32.0 °F100 %30.33 in10.0 miESE (120°)3.5 mphOvercast
3:55 AM30.2 °F30.2 °F100 %30.32 in10.0 miCalmMostly Cloudy
4:15 AM30.2 °F30.2 °F100 %30.31 in10.0 miCalmOvercast
4:35 AM32.0 °F32.0 °F100 %30.32 in10.0 miEast (90°)3.5 mphOvercast
4:55 AM30.2 °F30.2 °F100 %30.32 in10.0 miEast (80°)4.6 mphMostly Cloudy
5:15 AM32.0 °F32.0 °F100 %30.32 in10.0 miENE (70°)3.5 mphOvercast
5:35 AM32.0 °F32.0 °F100 %30.32 in10.0 miCalmOvercast
5:55 AM32.0 °F32.0 °F100 %30.32 in10.0 miCalmOvercast
6:15 AM32.0 °F32.0 °F100 %30.31 in10.0 miSE (130°)3.5 mphOvercast
6:35 AM32.0 °F32.0 °F100 %30.31 in10.0 miCalmOvercast
6:55 AM32.0 °F32.0 °F100 %30.31 in10.0 miESE (110°)3.5 mphMostly Cloudy
7:15 AM32.0 °F32.0 °F100 %30.31 in10.0 miEast (100°)3.5 mphScattered Clouds
7:55 AM32.0 °F32.0 °F100 %30.32 in10.0 miCalmOvercast
8:15 AM32.0 °F32.0 °F100 %30.33 in10.0 miCalmMostly Cloudy
8:35 AM32.0 °F32.0 °F100 %30.33 in10.0 miSE (140°)3.5 mphMostly Cloudy
8:55 AM32.0 °F32.0 °F100 %30.33 in10.0 miSSE (150°)3.5 mphMostly Cloudy
9:15 AM35.6 °F35.6 °F100 %30.33 in10.0 miSouth (190°)4.6 mphOvercast
9:35 AM35.6 °F35.6 °F100 %30.33 in10.0 miCalmOvercast
9:55 AM37.4 °F37.4 °F100 %30.33 in10.0 miSSE (160°)3.5 mphOvercast
10:15 AM39.2 °F37.4 °F93 %30.32 in10.0 miSouth (170°)3.5 mphOvercast
10:35 AM41.0 °F35.6 °F81 %30.32 in10.0 miSouth (190°)4.6 mphScattered Clouds
10:55 AM44.6 °F33.8 °F66 %30.32 in10.0 miCalmClear
11:15 AM46.4 °F32.0 °F57 %30.32 in10.0 miCalmClear
11:35 AM46.4 °F32.0 °F57 %30.32 in10.0 miNW (310°)5.8 mphClear
11:55 AM48.2 °F32.0 °F54 %30.31 in10.0 miNNW (330°)9.2 mphClear
12:15 PM48.2 °F32.0 °F54 %30.31 in10.0 miNW (320°)8.1 mphClear
12:35 PM50.0 °F32.0 °F50 %30.30 in10.0 miNW (310°)10.4 mphClear
12:55 PM50.0 °F32.0 °F50 %30.29 in10.0 miNW (320°)10.4 mphClear
1:15 PM50.0 °F30.2 °F47 %30.29 in10.0 miWNW (300°)9.2 mphClear
1:35 PM50.0 °F30.2 °F47 %30.28 in10.0 miNW (320°)9.2 mph16.1 mphPartly Cloudy
1:55 PM50.0 °F30.2 °F47 %30.28 in10.0 miWNW (300°)8.1 mphClear
2:15 PM51.8 °F32.0 °F47 %30.27 in10.0 miNorth (350°)11.5 mphClear
2:35 PM51.8 °F30.2 °F44 %30.26 in10.0 miNW (310°)11.5 mphClear
2:55 PM50.0 °F32.0 °F50 %30.26 in10.0 miNNW (340°)6.9 mphPartly Cloudy
3:15 PM50.0 °F32.0 °F50 %30.26 in10.0 miNorth (350°)9.2 mphPartly Cloudy
3:35 PM50.0 °F32.0 °F50 %30.26 in10.0 miNorth (10°)10.4 mphClear
3:55 PM50.0 °F32.0 °F50 %30.26 in10.0 miNorth (10°)9.2 mphPartly Cloudy
4:15 PM50.0 °F30.2 °F47 %30.26 in10.0 miNorth (350°)9.2 mphMostly Cloudy
4:35 PM50.0 °F32.0 °F50 %30.26 in10.0 miNorth (10°)10.4 mphOvercast
4:55 PM48.2 °F30.2 °F50 %30.26 in10.0 miNorth (360°)5.8 mphOvercast
5:15 PM48.2 °F32.0 °F54 %30.26 in10.0 miNorth (360°)4.6 mphOvercast
5:35 PM48.2 °F32.0 °F54 %30.26 in10.0 miCalmMostly Cloudy
5:55 PM48.2 °F32.0 °F54 %30.26 in10.0 miCalmOvercast
6:15 PM46.4 °F32.0 °F57 %30.26 in10.0 miCalmMostly Cloudy
6:35 PM46.4 °F32.0 °F57 %30.27 in10.0 miCalmMostly Cloudy
6:55 PM46.4 °F32.0 °F57 %30.27 in10.0 miWNW (290°)3.5 mphMostly Cloudy
7:15 PM46.4 °F32.0 °F57 %30.28 in10.0 miCalmMostly Cloudy
7:35 PM44.6 °F32.0 °F61 %30.28 in10.0 miWNW (300°)5.8 mphMostly Cloudy
7:55 PM46.4 °F30.2 °F53 %30.28 in10.0 miWNW (290°)11.5 mph17.3 mphMostly Cloudy
8:15 PM44.6 °F28.4 °F53 %30.28 in10.0 miWNW (300°)11.5 mphScattered Clouds
8:35 PM44.6 °F28.4 °F53 %30.28 in10.0 miNW (310°)10.4 mph17.3 mphOvercast
8:55 PM42.8 °F28.4 °F57 %30.28 in10.0 miWNW (300°)6.9 mphOvercast
9:15 PM42.8 °F28.4 °F57 %30.29 in10.0 miNW (320°)11.5 mph17.3 mphOvercast
9:55 PM42.8 °F28.4 °F57 %30.30 in10.0 miNW (320°)11.5 mphOvercast
10:15 PM41.0 °F28.4 °F61 %30.31 in10.0 miNW (310°)10.4 mphOvercast
10:35 PM41.0 °F28.4 °F61 %30.32 in10.0 miNW (310°)8.1 mphOvercast
10:55 PM41.0 °F28.4 °F61 %30.32 in10.0 miNW (310°)9.2 mphOvercast
11:15 PM39.2 °F28.4 °F65 %30.33 in10.0 miNW (310°)10.4 mphOvercast
11:55 PM39.2 °F28.4 °F65 %30.33 in10.0 miWNW (300°)11.5 mphOvercast
Hourly data recorded from KMAN, located 6.16 miles away from Meridian - South, Idaho







STORIES FROM OUR PARTNERS